Regional Weather Roundup
Issued by NWS

Home | Current Version | Previous Version | Text Only | Print | Product List | Glossary Off
Versions: 1 2 3 4 5 6 7 8 9 10 11 12 13 14 15 16 17 18 19 20 21 22 23 24 25 26 27 28 29 30 31 32 33 34 35 36 37 38 39 40 41 42 43 44 45 46 47 48 49 50

859
ASUS45 KCYS 280010
RWRWY

WYOMING REGIONAL WEATHER ROUNDUP
NATIONAL WEATHER SERVICE CHEYENNE WY
600 PM MDT THU APR 27 2017

NOTE:  "FAIR" INDICATES FEW OR NO CLOUDS BELOW 12,000 FEET
WITH NO SIGNIFICANT WEATHER AND/OR OBSTRUCTIONS TO VISIBILITY.

WYZ001-280100-
YELLOWSTONE NATIONAL PARK

CITY           SKY/WX    TMP DP  RH WIND       PRES   REMARKS
LK YELLOWSTONE   N/A     26  24  92 VRB3      29.73R
6HR MIN TEMP:  26; 6HR MAX TEMP:  34; 6HR PCP:  0.08;

W YELLOWSTONE  NOT AVBL

$$
WYZ002>013-054>058-071-098>099-280100-
NORTHERN WYOMING

CITY           SKY/WX    TMP DP  RH WIND       PRES   REMARKS
JACKSON        PTSUNNY   36  25  64 SW12      29.71R WCI  27
CODY           LGT RAIN  37  34  89 NW8       29.68R WCI  31
GREYBULL       FAIR      49  34  56 NW32G39   29.56R
6HR MIN TEMP:  48; 6HR MAX TEMP:  55;

WORLAND        CLOUDY    48  36  63 NW25G37   29.56R
6HR MIN TEMP:  44; 6HR MAX TEMP:  50; 6HR PCP:  0.01;

SHERIDAN       LGT SNOW  33  32  96 NW9       29.68R FOG     WCI  25
6HR MIN TEMP:  33; 6HR MAX TEMP:  34; 6HR PCP:  0.46;

BUFFALO        SNOW      34  31  88 NW13G25   29.64R VSB 1/2 WCI  25
6HR MIN TEMP:  34; 6HR MAX TEMP:  36; 6HR PCP:  0.04;

GILLETTE       RAIN      37  36  96 N10       29.62R WCI  30
6HR MIN TEMP:  36; 6HR MAX TEMP:  40; 6HR PCP:  0.34;

HULETT         CLOUDY    39  34  81 E10G17    29.65R WCI  32
NEWCASTLE      LGT RAIN  41  36  81 SE13G20   29.61R

$$
WYZ014>020-022>026-101>103-280100-
CENTRAL WYOMING

CITY           SKY/WX    TMP DP  RH WIND       PRES   REMARKS
BIG PINEY      FAIR      38  20  48 N24G31    29.70R WCI  27
6HR MIN TEMP:  37; 6HR MAX TEMP:  44;

PINEDALE       CLOUDY    36  21  55 NW28      29.69R WCI  23
DUBOIS         CLOUDY    32  23  69 W20       29.65R WCI  20
LANDER         CLOUDY    35  32  88 NW15      29.63R WCI  25
6HR MIN TEMP:  32; 6HR MAX TEMP:  35; 6HR PCP:  0.33;

RIVERTON       FLURRIES  35  34  96 NW23G32   29.62R WCI  23
6HR MIN TEMP:  33; 6HR MAX TEMP:  42; 6HR PCP:  0.14;

CASPER         CLOUDY    37  34  89 N12       29.58S WCI  29
6HR MIN TEMP:  37; 6HR MAX TEMP:  43; 6HR PCP:  0.14;

DOUGLAS        LGT RAIN  41  37  86 NE6       29.56R
6HR MIN TEMP:  38; 6HR MAX TEMP:  49;


$$
WYZ021-027>030-104>119-280100-
SOUTHERN WYOMING

CITY           SKY/WX    TMP DP  RH WIND       PRES   REMARKS
EVANSTON       CLOUDY    36  21  54 W20       29.77R WCI  25
6HR MIN TEMP:  31; 6HR MAX TEMP:  40; 6HR PCP: TRACE;

KEMMERER         N/A     34  21  60 W25G37    29.73R WCI  21
FORT BRIDGER   MOCLDY    36  27  69 W26G32    29.78R WCI  23
ROCK SPRINGS   FAIR      41  14  33 W26G40    29.68R
6HR MIN TEMP:  38; 6HR MAX TEMP:  45;

DIXON            N/A     44  19  37 NW23G29   29.67R
RAWLINS        FAIR      38  29  70 W23G33    29.60R WCI  27
6HR MIN TEMP:  37; 6HR MAX TEMP:  45; 6HR PCP:  0.04;

SARATOGA       FAIR      37  27  65 W22G32    29.64R WCI  27
LARAMIE        PTSUNNY   40  26  57 NW17G32   29.58R WCI  31
6HR MIN TEMP:  32; 6HR MAX TEMP:  45; 6HR PCP: TRACE;

CHEYENNE       FAIR      48  23  37 NW14G22   29.55R
6HR MIN TEMP:  33; 6HR MAX TEMP:  48; 6HR PCP:  0.12;

TORRINGTON     PTSUNNY   46  42  86 SE10      29.53R
6HR MIN TEMP:  43; 6HR MAX TEMP:  50; 6HR PCP:  0.04;

PINE BLUFFS    FAIR      39  36  87 E8        29.55R WCI  34

$$




USA.gov is the U.S. government's official web portal to all federal, state and local government web resources and services.